Retour au catalogue

BREEZE-M DEB

ActifHEO
NORAD 32494·DEBRIS·🇷🇺 Russia

Lancé Feb 28, 2006 depuis Baikonur Cosmodrome

Loading…

Prochains Passages (prochaines 24 heures)

TLE

FraisSource: Space-Track

Époque: Sep 13, 2026, 21:01 UTC

1 32494U 06006AH  26256.87621035  .00001108  00000-0  13484-2 0  9999
2 32494  51.6291  73.8475 5078128  99.3626 319.1671  5.29942888374601

Suivez BREEZE-M DEB en temps réel avec AllMySat

Download on the App Store